Content
SEND FEEDBACK

Canada Flag

ANCIENNE LORETTE, QUEBEC


Home > North America > Canada > Quebec
Elevation: 230 feet     Latitude: 46 48N     Longitude: 071 22W

WEATHER
 
SELECT A DAY
Number of Records: 215,370;   Date Range: 6/30/96 - 3/22/16
 
SHARE

PRINT THIS DATA

[ ← Previous Day ]
WEATHER ALMANAC - SEPTEMBER 22, 2013
[ Next Day → ]
[ °C ]   °F
Weather ElementAverageHighLow
Temperature57.1 °F63 °F (2:00 am)48 °F (11:00 pm)
Dewpoint45.3 °F61 °F (2:00 am) (7:00 pm)
Humidity85.4 %100 % (1:00 am)62 % (2:00 pm)
Wind Speed9.9 mph16.1 mph (2:00 am)
Wind Gust24.2 mph (2:00 am)
Weather ElementAverage
Visibility13.9 mi
Wind DirectionWSW (249.2 °)

Weather ElementTotal
Precipitation---
Heating Degree Days9.5 (Base 65)
Growing Degree Days5.5 (Base 50)
Averaged from 36 records on September 22, 2013
WEATHER CONDITIONS BREAKOUT
WIND DIRECTION BREAKOUT
WEATHER BY HOUR - SEPTEMBER 22, 2013
[ °C ]   °F
Local TimeTemperatureDewpointHumidityBarometerVisibilityWind DirectionWind SpeedGust SpeedPrecipitationEventsConditions
1:00 AM60.8 °F60.8 °F100 %29.53 in4.0 miWest (260°)3.5 mphRainLight Rain Showers
1:34 AM60.8 °F0.0 °F2.0 miSW (230°)15.0 mphRainRain Showers
2:00 AM63.0 °F61.0 °F92 %29.49 inSSW (210°)8.1 mph
2:00 AM62.6 °F60.8 °F94 %29.51 in4.0 miSouth (190°)16.1 mph24.2 mphRainLight Rain Showers
3:00 AM60.8 °F59.0 °F94 %29.50 in6.0 miWSW (250°)10.4 mphRainLight Rain
4:00 AM59.0 °F59.0 °F100 %29.51 in6.0 miWSW (240°)10.4 mphRainLight Rain
5:00 AM59.0 °F58.0 °F97 %29.50 inSW (230°)4.6 mph
5:00 AM59.0 °F59.0 °F100 %29.52 in6.0 miSW (220°)10.4 mphRainLight Rain
6:00 AM59.0 °F57.2 °F94 %29.51 in5.0 miSSW (210°)6.9 mphRainLight Rain
6:19 AM59.0 °F0.0 °F3.0 miSW (220°)6.9 mphRainLight Rain
7:00 AM59.0 °F57.2 °F94 %29.52 in6.0 miSSW (200°)6.9 mphRainLight Rain
7:45 AM59.0 °F0.0 °F8.0 miSSW (200°)10.4 mphOvercast
8:00 AM59.0 °F58.0 °F95 %29.50 inSW (230°)5.8 mph
8:00 AM59.0 °F57.2 °F94 %29.52 in1.5 miSW (230°)13.8 mphRainLight Rain
8:36 AM57.2 °F0.0 °F3.0 miWNW (290°)9.2 mphRainRain
9:00 AM57.2 °F55.4 °F94 %29.54 in6.0 miWest (260°)8.1 mphRainLight Rain
10:00 AM57.2 °F57.2 °F100 %29.57 in8.0 miWSW (240°)10.4 mphRainLight Rain
10:32 AM59.0 °F0.0 °F15.0 miWest (280°)5.8 mphMostly Cloudy
11:00 AM59.0 °F57.2 °F94 %29.57 in15.0 miWSW (240°)12.7 mphMostly Cloudy
11:00 AM60.0 °F57.0 °F87 %29.55 inWSW (240°)6.9 mph
12:00 PM60.8 °F55.4 °F82 %29.58 in20.0 miSW (230°)13.8 mphMostly Cloudy
1:00 PM60.8 °F53.6 °F77 %29.59 in30.0 miSW (230°)15.0 mphMostly Cloudy
2:00 PM62.0 °F52.0 °F62 %29.58 inWNW (290°)10.4 mph
2:00 PM60.8 °F51.8 °F72 %29.61 in30.0 miWSW (250°)12.7 mphMostly Cloudy
3:00 PM59.0 °F50.0 °F72 %29.63 in20.0 miWest (280°)9.2 mphRainLight Rain Showers
4:00 PM55.4 °F50.0 °F82 %29.65 in30.0 miWest (260°)12.7 mph19.6 mphOvercast
5:00 PM53.6 °F48.2 °F82 %29.70 in30.0 miWSW (240°)15.0 mphOvercast
5:00 PM54.0 °F49.0 °F77 %29.67 inWest (280°)6.9 mph
6:00 PM53.6 °F48.2 °F82 %29.71 in30.0 miWSW (250°)10.4 mphMostly Cloudy
7:00 PM51.8 °F46.4 °F82 %29.73 in30.0 miWest (270°)13.8 mphOvercast
8:00 PM51.0 °F46.0 °F77 %29.73 inWNW (290°)9.2 mph
8:00 PM50.0 °F44.6 °F82 %29.75 in20.0 miWest (270°)9.2 mphOvercast
9:00 PM50.0 °F41.0 °F71 %29.76 in20.0 miWest (270°)11.5 mphMostly Cloudy
10:00 PM48.2 °F41.0 °F76 %29.78 in15.0 miWNW (300°)10.4 mph19.6 mphMostly Cloudy
11:00 PM48.0 °F41.0 °F70 %29.79 inWest (280°)5.8 mph
11:00 PM48.2 °F39.2 °F71 %29.80 in15.0 miNW (310°)8.1 mphMostly Cloudy
Hourly data recorded from CYQB, located miles away from Ancienne Lorette, Quebec




STORIES FROM OUR PARTNERS